sat.trackr.live / text

‹ back to catalog

KUIPER-00157

NORAD 65970 · 2025-228Z

PAYLOAD ACTIVE UNKNOWN

§ Identity

Operator
Country
US
Launch date
2025-10-14
Launch site
AFETR
Launch vehicle
Mass (kg)
RCS (m²)

External: N2YO · Heavens-Above · Gunter

§ Orbital elements

Epoch: 2026-05-25T00:40:49.243008Z

Period
97.30 min
Inclination
51.9035°
Eccentricity
0.0000649
Mean motion
14.79919864 rev/d
Perigee alt
629.1 km
Apogee alt
630.0 km
Semi-major
7,007.7 km
B*
4.5349e-4
RAAN
0.6630°
Arg perigee
106.8349°
Mean anomaly
253.2685°
Rev number
3,484

§ Raw data

KUIPER-001571 65970U 25228Z   26145.02834772  .00003237  00000+0  45349-3 0  99992 65970  51.9035   0.6630 0000649 106.8349 253.2685 14.79919864 34845

JSON: /api/v1/satellites/65970 · /tle

For live sub-satellite position, see the globe view (requires WebGL).

§ Visibility from observer

Set your observer location to see the next 7 days of passes ≥ 10°. The values pass through the URL so the page stays shareable.

No JS? Fill the form by hand. The geolocation button needs JavaScript.